Weather History for Tegucigalpa, Honduras

Change the Weather History Date:

Thursday, January 16, 2014

  Actual Average Record
Temperature  
Mean Temperature 62 °F -  
Max Temperature 72 °F 78 °F 86 °F (2000)
Min Temperature 53 °F 57 °F 50 °F (2004)
Degree Days  
Heating Degree Days 2    
Growing Degree Days 12 (Base 50)    
Moisture  
Dew Point 51 °F    
Average Humidity 72    
Maximum Humidity 88    
Minimum Humidity 43    
Precipitation  
Precipitation 0.00 in 0.01 in - ()
Sea Level Pressure  
Sea Level Pressure 30.13 in    
Wind  
Wind Speed 11 mph ()    
Max Wind Speed 23 mph    
Max Gust Speed 23 mph    
Visibility 6.4 miles    
Events Rain    
Averages and records for this station are not official NWS values.
T = Trace of Precipitation, MM = Missing Value Source: Averaged Metar Reports

Daily Weather History Graph

Daily Weather History Graph

Search for Another Location

Airport:

Trip Planner

Search our weather history database for the weather conditions in past years. The results will help you decide how hot, cold, wet, or windy it might be!

Date:

Astronomy

Jan. 16, 2014 Rise Set
Actual Time 6:16 AM CST 5:40 PM CST
Civil Twilight 5:54 AM CST 6:03 PM CST
Nautical Twilight 5:27 AM CST 6:29 PM CST
Astronomical Twilight 5:01 AM CST 6:55 PM CST
Moon 6:15 PM CST (1/16) 6:23 AM CST (1/16)
Length of Visible Light 12h 09m
Length of Day
11h 23m
Full, 100% of the Moon is Illuminated
Jan 16
Full
Jan 23
Last Quarter
Jan 30
New
Feb 6
First Quarter
Feb 14
Full

Hourly Weather History & Observations

Time (CST) Temp. Dew Point Humidity Pressure Visibility Wind Dir Wind Speed Gust Speed Precip Events Conditions
12:00 AM 61 °F 58 °F 86% 30.05 in 4 mi North 16.1 mph - - Rain Light Drizzle
12:00 AM 60.8 °F 57.2 °F 88% 30.15 in 6.2 mi North 16.1 mph - N/A   Drizzle
1:00 AM 59.0 °F 51.8 °F 77% 30.18 in 5.0 mi North 11.5 mph - N/A   Scattered Clouds
2:00 AM 57.2 °F 50.0 °F 77% 30.15 in 6.2 mi North 9.2 mph - N/A   Scattered Clouds
3:00 AM 56 °F 48 °F 68% 30.10 in 6 mi NNW 6.9 mph - -   Haze
3:00 AM 55.4 °F 48.2 °F 77% 30.15 in 6.2 mi NNW 6.9 mph - N/A   Scattered Clouds
4:00 AM 55.4 °F 48.2 °F 77% 30.15 in 6.2 mi North 6.9 mph - N/A   Scattered Clouds
5:00 AM 53.6 °F 48.2 °F 82% 30.12 in 6.2 mi North 4.6 mph - N/A   Partly Cloudy
6:00 AM 54 °F 49 °F 79% 30.17 in 6 mi North 9.2 mph - -   Haze
6:00 AM 53.6 °F 50.0 °F 88% 30.18 in 6.2 mi North 9.2 mph - N/A   Partly Cloudy
7:00 AM 55.4 °F 50.0 °F 82% 30.18 in 6.2 mi North 9.2 mph - N/A   Partly Cloudy
8:00 AM 57.2 °F 50.0 °F 77% 30.18 in 6.2 mi NNW 13.8 mph - N/A   Scattered Clouds
9:00 AM 62 °F 48 °F 50% 30.09 in 7 mi North 16.1 mph - -   Haze
9:00 AM 62.6 °F 48.2 °F 59% 30.21 in 6.2 mi North 16.1 mph - N/A   Scattered Clouds
10:00 AM 64.4 °F 48.2 °F 56% 30.21 in 6.2 mi North 11.5 mph 23.0 mph N/A   Scattered Clouds
11:00 AM 68.0 °F 48.2 °F 49% 30.21 in 6.2 mi North 11.5 mph 23.0 mph N/A   Scattered Clouds
12:00 PM 67 °F 49 °F 43% 30.07 in 9 mi North 23.0 mph - -   Haze
12:00 PM 66.2 °F 48.2 °F 52% 30.15 in 6.2 mi North 11.5 mph 23.0 mph N/A   Scattered Clouds
1:00 PM 68.0 °F 50.0 °F 52% 30.15 in 6.2 mi North 11.5 mph 23.0 mph N/A   Scattered Clouds
2:00 PM 68.0 °F 55.4 °F 64% 30.09 in 6.2 mi North 20.7 mph - N/A   Scattered Clouds
3:00 PM 67 °F 56 °F 59% 30.00 in 9 mi North 20.7 mph - -   Haze
3:00 PM 68.0 °F 55.4 °F 64% 30.09 in 6.2 mi North 20.7 mph - N/A   Scattered Clouds
4:00 PM 62.6 °F 53.6 °F 72% 30.09 in 6.2 mi North 13.8 mph - N/A   Mostly Cloudy
5:00 PM 60.8 °F 53.6 °F 77% 30.09 in 6.2 mi North 13.8 mph - N/A   Mostly Cloudy
6:00 PM 59 °F 53 °F 75% 30.08 in 9 mi NE 16.1 mph - -   Haze
6:00 PM 59.0 °F 53.6 °F 82% 30.12 in 6.2 mi NE 16.1 mph - N/A   Scattered Clouds
7:00 PM 57.2 °F 53.6 °F 88% 30.12 in 6.2 mi North 13.8 mph - N/A   Mostly Cloudy
8:00 PM 57.2 °F 53.6 °F 88% 30.15 in 6.2 mi North 11.5 mph - N/A   Mostly Cloudy
9:00 PM 57 °F 51 °F 76% 30.11 in 6 mi North 9.2 mph - -   Haze
9:00 PM 57.2 °F 51.8 °F 82% 30.18 in 6.2 mi North 9.2 mph - N/A   Mostly Cloudy
10:00 PM 57.2 °F 51.8 °F 82% 30.18 in 6.2 mi North 6.9 mph - N/A   Mostly Cloudy
11:00 PM 57.2 °F 48.2 °F 72% 30.15 in 6.2 mi North 8.1 mph - N/A   Mostly Cloudy